Klawock, AK

12:24 AM AKST on November 13, 2019 (GMT -0900)
Klawock

Weather History for PAKW - October, 2019

Change the Weather History Date:

Monday, October 21, 2019

  Actual Average Record
Temperature  
Mean Temperature 40 °F -  
Max Temperature 46 °F 48 °F 57 °F (2002)
Min Temperature 34 °F 38 °F 28 °F (2004)
Degree Days  
Heating Degree Days 26    
Moisture  
Dew Point 38 °F    
Average Humidity 90    
Maximum Humidity 96    
Minimum Humidity 82    
Precipitation  
Precipitation 0.07 in - - ()
Sea Level Pressure  
Sea Level Pressure 29.67 in    
Wind  
Wind Speed 4 mph (NE)    
Max Wind Speed 15 mph    
Max Gust Speed 28 mph    
Visibility 9 miles    
Events Rain    
Averages and records for this station are not official NWS values.
T = Trace of Precipitation, MM = Missing Value Source: NWS Daily Summary

Daily Weather History Graph

Daily Weather History Graph

Search for Another Location

Airport or City:

Astronomy

Oct. 21, 2019 Rise Set
Actual Time 7:35 AM AKDT 5:37 PM AKDT
Civil Twilight 6:57 AM AKDT 6:15 PM AKDT
Nautical Twilight 6:14 AM AKDT 6:58 PM AKDT
Astronomical Twilight 5:31 AM AKDT 7:40 PM AKDT
Moon 11:26 PM AKDT (10/21) 3:36 PM AKDT (10/21)
Length of Visible Light 11h 18m
Length of Day
10h 02m
Waning Gibbous, 47% of the Moon is Illuminated
Oct 21
Waning Gibbous
Oct 27
New
Nov 4
First Quarter
Nov 12
Full
Nov 19
Last Quarter

Hourly Weather History & Observations

Time (AKDT) Temp. Windchill Dew Point Humidity Pressure Visibility Wind Dir Wind Speed Gust Speed Precip Events Conditions
12:53 AM 35.1 °F - 33.1 °F 92% 29.81 in 10.0 mi Calm Calm - N/A   Clear
1:53 AM 35.1 °F - 33.1 °F 92% 29.81 in 10.0 mi Calm Calm - N/A   Clear
2:18 AM 34.0 °F - 33.1 °F 96% 29.79 in 5.0 mi Calm Calm - N/A   Partly Cloudy
2:53 AM 36.0 °F 33.3 °F 33.1 °F 89% 29.78 in 10.0 mi Variable 3.5 mph - N/A   Clear
3:53 AM 39.0 °F 35.7 °F 36.0 °F 89% 29.78 in 10.0 mi Variable 4.6 mph - N/A   Clear
5:53 AM 39.0 °F 34.8 °F 36.0 °F 89% 29.75 in 10.0 mi NE 5.8 mph - N/A   Clear
6:05 AM 39.9 °F 35.8 °F 37.0 °F 89% 29.76 in 10.0 mi ENE 5.8 mph - N/A   Scattered Clouds
6:23 AM 39.9 °F 37.8 °F 37.0 °F 89% 29.76 in 10.0 mi East 3.5 mph - N/A   Mostly Cloudy
6:50 AM 41.0 °F 36.4 °F 37.4 °F 87% 29.75 in 10.0 mi NE 6.9 mph - N/A   Scattered Clouds
6:53 AM 41.0 °F 36.4 °F 37.9 °F 89% 29.75 in 10.0 mi ENE 6.9 mph - N/A   Partly Cloudy
8:53 AM 43.0 °F 37.7 °F 39.0 °F 86% 29.72 in 10.0 mi NE 9.2 mph - N/A   Mostly Cloudy
11:53 AM 45.0 °F 39.7 °F 39.9 °F 82% 29.64 in 10.0 mi NNE 10.4 mph 21.9 mph 0.00 in Rain Light Rain
3:53 PM 44.1 °F 37.1 °F 42.1 °F 93% 29.41 in 10.0 mi NNE 15.0 mph 27.6 mph 0.01 in   Overcast
5:51 PM 44.6 °F 37.8 °F 42.8 °F 93% 29.34 in 2.5 mi NE 15.0 mph 25.3 mph 0.05 in Rain Rain
5:53 PM 44.1 °F 37.1 °F 42.1 °F 93% 29.34 in 2.5 mi NE 15.0 mph 25.3 mph 0.06 in Rain Rain
10:14 PM 41.0 °F 35.8 °F 39.0 °F 93% 29.57 in 9.0 mi WNW 8.1 mph - 0.00 in Rain Light Rain
10:35 PM 41.0 °F 37.1 °F 37.9 °F 89% 29.61 in 10.0 mi Variable 5.8 mph - 0.00 in Rain Light Rain
10:53 PM 42.1 °F - 37.9 °F 85% 29.67 in 10.0 mi Calm Calm - 0.00 in   Overcast
11:19 PM 41.0 °F - 39.0 °F 93% 29.69 in 10.0 mi Calm Calm - 0.00 in Rain Light Rain
11:51 PM 41.0 °F - 37.4 °F 87% 29.70 in 10.0 mi Calm Calm - 0.00 in   Mostly Cloudy
11:53 PM 41.0 °F 39.0 °F 37.9 °F 89% 29.70 in 10.0 mi South 3.5 mph - 0.00 in   Scattered Clouds